Location: Bagnolo San Vito
(45.0833°N, 10.8833°E)
Time: 10:26:57
(UTC+00:00)

Cosmos 2074 Rocket - Pass Details

Date: 03 March 2021
Orbit: 967 x 986 km, 82.9° (Epoch: 18 April)

Event Time Altitude Azimuth Distance (km) Brightness Sun altitude
Rises 17:32:52 0° 181° (S) 3,676 7.1 -5.4°
Reaches altitude 10° 17:35:22 10° 180° (S) 2,729 6.4 -5.9°
Maximum altitude 17:41:37 77° 95° (E) 1,010 4.0 -7.0°
Drops below altitude 10° 17:47:52 10° 11° (N) 2,735 6.2 -8.1°
Sets 17:50:23 0° 10° (N) 3,683 6.9 -8.5°
